Weather History for Lamar, CO

Change the Weather History Date:

Saturday, May 18, 2013

  Actual Average Record
Temperature  
Mean Temperature 73 °F 63 °F  
Max Temperature 94 °F 79 °F 98 °F (1970)
Min Temperature 51 °F 47 °F 33 °F (1930)
Degree Days  
Heating Degree Days 0 4  
Month to date heating degree days 153 108  
Since 1 July heating degree days 5473 5508  
Cooling Degree Days 8 2  
Month to date cooling degree days 61 20  
Year to date cooling degree days 63 25  
Growing Degree Days 23 (Base 50)    
Moisture  
Dew Point 25 °F    
Average Humidity 39    
Maximum Humidity 73    
Minimum Humidity 5    
Precipitation  
Precipitation 0.00 in 0.07 in 1.73 in (1935)
Month to date precipitation 0.18 0.91  
Year to date precipitation 0.51 3.74  
Sea Level Pressure  
Sea Level Pressure 29.56 in    
Wind  
Wind Speed 11 mph (WSW)    
Max Wind Speed 29 mph    
Max Gust Speed 36 mph    
Visibility 10 miles    
Events      
T = Trace of Precipitation, MM = Missing Value Source: NWS Daily Summary

Daily Weather History Graph

Daily Weather History Graph

Search for Another Location

Airport:

Trip Planner

Search our weather history database for the weather conditions in past years. The results will help you decide how hot, cold, wet, or windy it might be!

Date:

Astronomy

May. 18, 2013 Rise Set
Actual Time 5:37 AM MDT 7:57 PM MDT
Civil Twilight 5:07 AM MDT 8:27 PM MDT
Nautical Twilight 4:31 AM MDT 9:04 PM MDT
Astronomical Twilight 3:50 AM MDT 9:44 PM MDT
Moon 1:09 PM MDT (5/18) 1:24 AM MDT (5/18)
Length of Visible Light 15h 19m
Length of Day
14h 19m
First Quarter, 56% of the Moon is Illuminated
May 18
First Quarter
May 24
Full
May 31
Last Quarter
Jun 8
New
Jun 16
First Quarter

Hourly Weather History & Observations

Time (MDT) Temp. Dew Point Humidity Pressure Visibility Wind Dir Wind Speed Gust Speed Precip Events Conditions
12:53 AM 68.0 °F 57.9 °F 70% 29.59 in 10.0 mi SSE 17.3 mph - N/A   Clear
1:53 AM 64.9 °F 55.9 °F 73% 29.60 in 10.0 mi South 10.4 mph - N/A   Clear
2:53 AM 61.0 °F 45.0 °F 56% 29.60 in 10.0 mi SSW 10.4 mph - N/A   Clear
3:53 AM 55.0 °F 37.0 °F 51% 29.62 in 10.0 mi SW 5.8 mph - N/A   Clear
4:53 AM 55.0 °F 30.0 °F 38% 29.61 in 10.0 mi West 9.2 mph - N/A   Clear
5:53 AM 55.9 °F 26.1 °F 32% 29.62 in 10.0 mi West 5.8 mph - N/A   Clear
6:53 AM 59.0 °F 27.0 °F 29% 29.64 in 10.0 mi West 4.6 mph - N/A   Clear
7:53 AM 64.0 °F 28.0 °F 26% 29.65 in 10.0 mi WNW 4.6 mph - N/A   Clear
8:53 AM 77.0 °F 17.1 °F 10% 29.64 in 10.0 mi WSW 5.8 mph - N/A   Clear
9:53 AM 82.9 °F 16.0 °F 8% 29.62 in 10.0 mi West 12.7 mph - N/A   Clear
10:53 AM 84.0 °F 16.0 °F 8% 29.61 in 10.0 mi West 8.1 mph - N/A   Clear
11:53 AM 90.0 °F 17.1 °F 7% 29.57 in 10.0 mi WNW 12.7 mph 19.6 mph N/A   Clear
1:53 PM 89.1 °F 12.0 °F 6% 29.55 in 10.0 mi Variable 3.5 mph - N/A   Clear
2:53 PM 90.0 °F 10.9 °F 5% 29.52 in 10.0 mi Variable 3.5 mph - N/A   Clear
3:53 PM 91.0 °F 12.9 °F 6% 29.51 in 10.0 mi SW 10.4 mph 24.2 mph N/A   Clear
4:53 PM 90.0 °F 12.9 °F 6% 29.48 in 10.0 mi SW 4.6 mph - N/A   Clear
5:53 PM 90.0 °F 15.1 °F 6% 29.46 in 10.0 mi WNW 21.9 mph 28.8 mph N/A   Clear
6:00 PM 87.8 °F 15.8 °F 7% 29.62 in 10.0 mi West 19.6 mph 28.8 mph N/A   Clear
6:53 PM 84.9 °F 15.1 °F 7% 29.47 in 10.0 mi West 10.4 mph - N/A   Clear
7:53 PM 79.0 °F 21.9 °F 12% 29.46 in 10.0 mi West 12.7 mph - N/A   Clear
8:53 PM 75.0 °F 21.9 °F 14% 29.44 in 10.0 mi WSW 15.0 mph - N/A   Clear
9:53 PM 68.0 °F 21.9 °F 17% 29.50 in 10.0 mi WSW 13.8 mph 20.7 mph N/A   Clear
10:53 PM 72.0 °F 26.1 °F 18% 29.52 in 10.0 mi West 17.3 mph - N/A   Clear
11:53 PM 69.1 °F 43.0 °F 39% 29.53 in 10.0 mi NNW 26.5 mph 32.2 mph N/A   Scattered Clouds